Retour au catalogue

SOYUZ MS-29

ActifMilitaireVLEO
NORAD 100057·PAYLOAD·🇷🇺 Russia

Lancé Jul 14, 2026 depuis Baikonur Cosmodrome

Loading…

Prochains Passages (prochaines 24 heures)

TLE

FraisSource: Space-Track

Époque: Sep 14, 2026, 08:04 UTC

1 A0057U 26162A   26257.33674862  .00004921  00000-0  97059-4 0  9990
2 A0057  51.6309 218.8707 0004933 140.1115 220.0237 15.49109585586746

Suivez SOYUZ MS-29 en temps réel avec AllMySat

Download on the App Store